Weather in Adrar

Algeria     27°52′05″N   0°17′50″E
temp.,
°C
wind,
m/s
gust,
m/s
humid.,
%
clouds,
%
prec.,
mm/h
press.,
hPa
HPBL,
m
7 march, sun
sun701:00+22se56140 0.0 101145
04:00+19sse45180 0.0 101028
07:00+16ssw34230 0.0 101023
10:00+21w68230 0.0 1012474
13:00+26wsw910140 0.0 10112041
16:00+26w910160 0.0 10092045
19:00+21w45210 0.0 101035
22:00+18wsw34260 0.0 101123
8 march, mon
mon801:00+16nw34300 0.0 101123
04:00+14nnw23310 0.0 101023
07:00+14n34380 0.0 101123
10:00+19n34290 0.0 1013346
13:00+24n44200 0.0 10121801
16:00+26nnw44160 0.0 10092116
19:00+21nne23220 0.0 100923
22:00+17ne23280 0.0 101123
9 march, tue
tue901:00+17ne45300 0.0 101126
04:00+17ene55300 0.0 100939
07:00+16e56340 0.0 100949
10:00+23ese56220 0.0 1010377
13:00+28se23130 0.0 10082713
16:00+29ssw23100 0.0 10053517
19:00+24wsw45140 0.0 100529
22:00+22nne56170 0.0 100751
10 march, wed
wed1001:00+20ene712200 0.0 1006166
04:00+17ene45220 0.0 100537
07:00+16ene67250 0.0 100681
10:00+22ene810220 0.0 1008772
13:00+28e67130 0.0 10082431
16:00+29nne991366 0.0 10063823
19:00+21nne15203859 0.0 10081141
22:00+19nne14214128 0.6 1012791
11 march, thu
thu1101:00+20ne12183657 0.8 1013949
04:00+18nne11174469 0.0 1013817
07:00+15nne10175438 0.0 1015841
10:00+18ne1418421 0.0 10171075
13:00+22ne1416342 0.0 10161780
16:00+21ne13163715 0.0 10141954
19:00+18ne12164520 0.0 10151218
22:00+15ne1117532 0.0 1017694